Wind_Speed
33 35 36 38 38 38 37 38 38 38 39 42 46 50 54 59 63 66 68 69 69 70 71 69 67 66 66 66 65 65 64 63 64 67 69 71 73 76 74 65 51 37 26 20
31 34 36 39 41 41 40 40 39 39 40 42 46 50 54 59 63 66 67 67 68 69 69 68 66 65 64 64 64 64 64 64 65 67 69 71 73 75 74 65 51 37 24 17
30 34 38 42 45 45 43 42 42 41 42 44 47 50 55 59 62 64 65 66 67 68 68 67 65 64 63 63 63 63 63 63 65 67 69 70 72 74 73 67 53 39 27 17
31 36 40 44 47 49 47 44 44 43 44 45 48 51 55 58 61 64 65 65 66 67 67 65 64 63 62 62 61 61 62 63 64 66 68 70 71 72 72 69 58 44 33 22
33 37 40 45 49 51 52 48 48 47 46 47 49 51 54 58 61 63 64 64 65 66 66 64 63 61 60 60 60 59 60 61 63 65 66 69 70 71 71 70 63 51 39 29
32 37 42 46 49 52 54 54 53 50 49 48 49 51 54 57 60 62 63 63 64 65 65 63 61 59 58 58 58 58 59 60 61 63 65 67 69 71 71 69 67 60 47 37
31 35 39 45 49 52 54 56 55 52 50 49 49 50 53 57 60 62 62 62 63 63 63 62 60 58 57 57 56 56 57 58 59 61 64 66 68 70 70 69 67 64 57 46
33 37 41 45 48 51 54 57 56 54 52 51 50 51 53 56 59 61 62 62 62 62 62 61 58 57 55 55 55 55 55 56 57 59 61 64 65 67 68 68 66 64 61 56
32 35 39 43 46 50 53 56 57 55 53 52 51 51 52 56 59 61 61 61 61 61 61 59 57 55 54 54 53 53 53 54 55 57 59 61 62 64 65 65 65 64 62 59
32 35 39 43 46 49 52 55 58 57 54 53 51 51 52 56 59 60 60 60 60 60 60 58 57 54 53 52 52 51 51 51 52 54 56 58 60 61 62 63 63 64 63 61
32 36 39 42 46 49 52 55 58 59 56 54 52 51 52 55 58 59 59 59 59 59 58 57 56 53 52 50 50 50 50 49 50 51 53 56 58 59 60 61 62 62 63 62
35 38 41 44 47 49 52 54 58 60 58 55 53 52 52 54 57 59 59 58 58 58 57 56 55 53 51 49 49 48 48 48 48 49 50 52 55 57 59 59 60 60 61 61
36 39 41 44 47 49 51 54 57 60 59 56 54 52 51 53 56 58 58 57 57 56 56 55 54 52 50 48 48 47 47 47 47 47 48 50 51 53 55 56 57 58 58 58
39 40 42 44 47 49 51 53 57 60 59 57 54 52 51 53 55 57 57 57 56 55 55 54 53 51 49 48 47 46 46 46 46 46 47 48 50 51 52 53 54 55 55 55
40 42 44 45 47 48 50 53 56 59 59 57 54 52 51 52 54 56 56 56 55 54 54 53 52 50 49 47 46 45 45 45 45 46 46 47 48 49 50 50 51 52 53 53
40 43 45 46 47 48 50 52 55 57 59 57 54 52 51 51 54 55 56 55 55 53 53 52 51 49 48 47 45 44 44 44 44 44 45 46 46 47 48 49 49 50 50 51
42 44 46 46 47 48 50 52 54 56 58 57 55 52 51 51 53 54 55 55 54 53 52 51 50 49 47 46 45 44 43 43 43 43 44 44 45 46 46 47 48 49 49 50
44 46 47 47 47 48 49 51 53 55 57 57 55 52 50 51 52 53 54 54 53 52 51 49 48 48 46 44 43 43 43 42 42 42 43 43 44 45 45 46 46 47 48 48
46 48 48 48 47 48 49 51 52 54 56 56 55 52 50 50 51 53 54 53 52 51 50 48 47 46 45 44 42 42 42 42 42 41 42 42 42 43 43 44 44 45 45 46
47 49 49 48 48 48 49 51 52 53 55 56 55 52 50 50 50 52 53 52 51 50 50 48 46 45 44 43 42 41 41 41 41 41 41 41 41 41 42 42 42 43 43 44
48 49 49 49 48 49 50 51 52 53 54 56 55 52 50 49 49 51 52 52 51 50 49 48 46 44 44 43 42 41 41 41 41 41 41 41 40 40 40 41 41 41 41 42
49 50 50 50 49 50 50 51 52 53 54 55 54 52 50 48 48 49 51 51 50 49 48 47 45 44 43 42 42 41 40 40 40 40 41 41 41 40 40 40 40 40 40 40
51 52 51 51 50 50 51 51 52 53 54 55 54 51 49 47 47 48 49 50 49 48 47 46 45 43 42 42 41 40 40 39 40 40 40 41 41 40 40 39 39 39 39 38
53 53 53 52 51 51 51 51 52 53 54 54 53 51 48 46 45 46 48 48 48 48 47 45 44 43 42 41 41 40 39 39 39 39 40 40 41 41 40 39 38 38 37 37
55 54 54 53 52 51 51 51 52 53 53 53 52 50 47 45 44 45 46 47 47 47 46 45 43 42 41 41 40 39 39 38 38 38 39 40 40 41 40 39 38 37 36 36
55 54 53 53 52 52 51 52 52 53 53 53 51 48 45 44 43 44 45 46 46 46 45 44 43 42 41 40 39 39 38 38 38 38 38 38 39 40 40 39 38 36 35 35
55 54 53 53 53 52 52 52 52 52 52 52 50 47 44 43 42 43 44 45 45 45 44 43 42 41 40 39 39 38 38 37 37 37 37 37 38 38 38 38 37 36 35 34
Wind_Direction
15 13 10 8 4 357 351 347 344 342 340 341 342 344 345 346 347 347 347 346 345 345 345 346 347 347 348 350 352 353 354 354 355 356 358 359 360 1 1 2 4 11 26 45
13 11 9 8 7 2 356 352 350 346 344 343 344 345 346 347 348 348 347 346 346 346 347 348 348 349 350 352 354 356 357 357 358 360 1 2 4 5 7 8 10 15 27 47
10 9 7 7 6 5 0 356 353 349 347 345 346 347 347 348 348 348 347 347 346 347 349 349 350 351 352 354 357 359 360 0 2 2 4 6 8 9 11 12 13 17 24 34
5 6 7 5 5 5 3 358 354 351 348 347 347 347 348 348 348 348 348 347 347 349 350 351 352 353 354 356 358 0 2 3 4 5 7 9 11 12 14 16 17 18 20 23
1 2 2 3 3 2 1 359 356 352 350 348 348 348 348 348 348 348 348 348 349 350 351 352 353 354 356 357 360 2 4 6 7 8 9 11 13 15 17 19 20 20 20 19
357 358 358 359 0 0 359 359 356 353 350 348 347 348 348 348 349 349 349 349 350 351 352 353 354 355 357 359 1 2 5 8 10 10 11 13 15 17 19 21 22 23 23 21
352 354 356 357 357 357 358 356 355 352 350 348 347 348 348 349 349 349 350 350 351 352 353 354 355 356 357 359 1 3 6 10 11 12 13 14 16 18 19 21 23 24 25 24
349 351 353 353 353 355 355 355 354 351 349 347 347 347 348 349 350 350 350 351 351 352 354 355 356 357 358 360 2 4 7 10 12 13 14 16 17 18 20 22 23 25 27 27
344 346 347 348 350 351 352 353 353 351 349 347 346 347 348 349 350 351 351 351 352 353 354 356 357 357 359 0 2 5 7 10 12 14 15 17 18 19 20 22 24 25 27 28
337 340 343 344 346 348 349 350 351 351 348 347 346 347 348 349 350 351 351 352 352 353 355 356 357 358 359 0 3 5 7 9 11 13 14 16 18 19 20 22 24 26 27 28
331 335 339 341 343 345 346 348 349 350 348 347 346 346 347 349 350 351 352 352 352 353 355 356 358 358 359 0 3 5 7 9 11 12 13 15 17 18 20 21 23 25 26 28
327 330 335 337 340 342 343 346 347 349 348 346 346 346 347 348 350 351 352 352 352 353 354 356 357 359 359 359 2 5 7 9 10 12 13 14 15 16 18 20 22 23 25 27
320 325 329 332 336 338 340 343 345 347 347 346 345 345 346 348 349 351 351 352 352 353 354 355 357 358 359 359 1 3 6 8 10 11 12 14 15 16 17 18 20 22 23 25
314 319 324 328 332 335 337 340 343 346 347 346 344 344 345 347 349 350 351 352 352 352 353 355 356 358 358 358 360 2 5 8 10 11 12 13 14 16 17 18 19 21 22 24
308 314 319 323 327 331 334 337 340 344 345 345 344 343 344 346 348 350 351 351 351 352 353 354 356 357 358 359 359 1 3 6 9 10 12 13 14 15 16 17 19 20 21 22
302 308 313 318 323 327 331 335 338 341 344 344 343 343 343 344 347 349 350 351 351 351 352 353 355 356 357 358 358 359 1 4 6 9 10 12 13 14 15 16 17 18 20 21
298 303 308 313 318 323 327 331 335 338 342 343 343 342 342 343 345 348 349 350 350 350 351 352 353 354 356 357 357 358 359 1 3 6 8 9 11 12 13 14 15 16 17 19
293 298 303 309 314 319 323 327 332 336 340 341 341 340 340 341 344 346 348 349 349 350 350 351 352 353 355 356 356 356 357 359 0 2 4 6 8 10 11 11 12 14 15 16
288 293 298 304 309 314 319 324 329 333 337 340 340 339 339 339 342 344 346 347 348 348 349 349 350 352 353 354 355 355 356 357 358 359 0 2 4 6 7 8 9 10 12 13
283 288 294 300 305 311 316 320 326 330 334 337 338 337 337 337 339 342 345 346 347 347 348 348 349 350 351 352 353 354 354 355 356 356 357 358 360 1 2 4 6 7 8 10
281 286 291 297 302 307 312 317 322 327 331 334 335 335 335 335 337 340 343 344 346 346 347 347 348 348 349 350 352 353 353 354 354 354 355 355 356 357 358 360 2 3 5 6
279 283 289 294 299 304 309 314 319 324 328 331 333 332 332 333 335 338 341 343 344 345 345 346 347 347 348 349 350 351 352 353 353 353 353 353 354 354 355 356 357 360 1 3
276 280 286 291 296 301 306 311 317 321 325 328 330 330 330 331 333 336 339 341 343 344 344 345 345 345 346 348 348 349 350 351 352 352 352 352 353 353 353 353 354 356 358 359
272 277 282 287 292 297 303 308 314 318 322 325 327 327 327 329 331 334 337 340 342 342 343 344 344 344 345 346 347 347 348 349 350 350 351 351 352 352 352 352 352 354 355 356
269 274 279 284 289 294 300 305 310 315 318 322 324 324 325 327 329 332 335 338 340 341 342 343 343 343 344 345 346 346 346 347 348 349 349 350 351 351 352 352 352 352 353 355
266 271 276 281 286 291 297 302 307 311 315 318 320 321 323 325 327 330 333 336 338 339 340 341 342 342 343 344 344 345 345 345 347 348 348 349 349 350 351 351 352 353 353 354
264 269 273 278 283 288 293 299 304 308 312 315 317 319 320 322 324 327 331 334 336 338 339 340 341 341 342 342 343 343 343 344 345 346 347 347 348 349 350 351 351 352 354 355
Height
5864 5858 5852 5846 5839 5831 5822 5814 5806 5798 5789 5780 5769 5758 5747 5734 5721 5706 5692 5676 5661 5646 5629 5612 5595 5579 5564 5547 5531 5515 5499 5483 5467 5450 5432 5413 5393 5371 5347 5325 5307 5294 5286 5282
5864 5858 5851 5845 5837 5828 5818 5809 5801 5793 5784 5774 5764 5753 5741 5729 5715 5701 5687 5672 5657 5642 5625 5609 5593 5577 5561 5545 5530 5513 5497 5481 5465 5449 5431 5413 5393 5372 5349 5329 5312 5301 5293 5288
5862 5856 5849 5841 5833 5825 5815 5805 5797 5788 5779 5769 5758 5747 5736 5723 5710 5697 5683 5668 5653 5638 5622 5606 5590 5575 5559 5544 5528 5513 5497 5481 5465 5449 5432 5414 5395 5375 5355 5335 5319 5307 5299 5294
5858 5853 5844 5840 5829 5820 5812 5802 5792 5783 5773 5763 5753 5742 5731 5719 5706 5693 5679 5664 5649 5634 5618 5602 5587 5572 5557 5542 5528 5513 5499 5483 5467 5452 5435 5418 5400 5381 5362 5343 5327 5314 5306 5300
5853 5847 5841 5834 5825 5816 5807 5799 5789 5778 5768 5758 5748 5738 5727 5715 5702 5689 5675 5661 5646 5631 5616 5600 5586 5571 5557 5543 5528 5515 5501 5486 5470 5455 5439 5423 5406 5388 5370 5353 5336 5322 5313 5306
5850 5842 5836 5831 5822 5812 5804 5794 5785 5774 5764 5754 5744 5734 5724 5711 5699 5686 5672 5658 5643 5628 5613 5598 5584 5570 5557 5543 5530 5517 5503 5488 5473 5458 5444 5428 5412 5395 5378 5362 5346 5332 5320 5312
5847 5840 5834 5827 5817 5809 5800 5793 5781 5770 5760 5751 5741 5731 5720 5707 5695 5682 5669 5655 5641 5626 5612 5597 5583 5570 5557 5544 5531 5518 5504 5490 5477 5463 5449 5433 5417 5402 5386 5370 5355 5342 5329 5318
5841 5835 5830 5822 5814 5806 5799 5788 5777 5766 5756 5747 5736 5726 5715 5704 5692 5679 5666 5652 5638 5624 5610 5596 5582 5569 5557 5544 5532 5519 5506 5493 5481 5468 5454 5440 5426 5411 5397 5382 5368 5354 5341 5329
5839 5835 5827 5819 5811 5804 5795 5785 5774 5763 5753 5742 5732 5722 5711 5700 5688 5676 5663 5650 5636 5622 5609 5595 5582 5569 5558 5545 5533 5521 5508 5496 5484 5473 5461 5447 5434 5421 5408 5394 5380 5366 5352 5340
5834 5829 5823 5815 5807 5800 5791 5781 5771 5760 5749 5739 5728 5718 5708 5697 5685 5673 5660 5647 5634 5621 5608 5595 5582 5570 5558 5546 5535 5523 5511 5500 5489 5477 5466 5454 5442 5429 5417 5404 5390 5376 5363 5351
5829 5824 5819 5812 5804 5796 5787 5777 5767 5756 5745 5735 5725 5714 5704 5693 5682 5670 5657 5645 5632 5620 5607 5594 5582 5570 5559 5548 5536 5525 5514 5504 5492 5481 5470 5459 5447 5436 5423 5410 5398 5386 5373 5361
5823 5818 5812 5806 5799 5791 5783 5773 5764 5753 5742 5731 5721 5711 5701 5690 5679 5667 5655 5643 5631 5618 5606 5594 5582 5571 5560 5549 5539 5528 5518 5507 5497 5486 5475 5463 5451 5440 5428 5417 5405 5394 5382 5370
5817 5812 5807 5800 5794 5786 5778 5769 5760 5749 5738 5727 5717 5707 5697 5687 5676 5665 5653 5641 5629 5617 5605 5594 5582 5571 5560 5550 5540 5530 5520 5510 5499 5489 5479 5468 5458 5447 5436 5424 5413 5402 5392 5381
5809 5805 5800 5794 5788 5781 5773 5765 5755 5745 5734 5724 5713 5704 5694 5684 5673 5662 5651 5639 5627 5616 5605 5593 5582 5571 5561 5551 5541 5531 5522 5512 5502 5492 5482 5472 5462 5452 5442 5432 5421 5411 5400 5390
5802 5798 5793 5788 5782 5775 5768 5760 5751 5741 5730 5720 5710 5700 5690 5681 5670 5659 5648 5637 5626 5614 5604 5593 5582 5572 5562 5552 5543 5533 5523 5514 5504 5495 5485 5476 5466 5457 5447 5437 5428 5418 5408 5398
5796 5791 5786 5781 5776 5769 5762 5754 5746 5736 5726 5715 5705 5696 5686 5677 5667 5656 5646 5634 5624 5613 5602 5592 5582 5572 5562 5552 5543 5534 5525 5516 5507 5498 5489 5479 5470 5461 5452 5443 5434 5424 5415 5406
5787 5782 5778 5774 5769 5763 5756 5749 5740 5731 5721 5711 5701 5691 5682 5673 5664 5653 5643 5632 5621 5611 5601 5591 5581 5571 5561 5552 5543 5535 5526 5517 5508 5500 5491 5483 5474 5465 5456 5447 5438 5429 5420 5411
5777 5774 5770 5766 5761 5756 5749 5742 5734 5725 5716 5706 5696 5687 5678 5669 5660 5650 5640 5629 5619 5609 5599 5589 5580 5571 5561 5552 5544 5535 5527 5518 5510 5501 5493 5485 5477 5468 5459 5451 5442 5434 5424 5416
5768 5764 5761 5758 5753 5748 5742 5735 5728 5719 5710 5700 5691 5682 5673 5665 5656 5647 5636 5626 5616 5607 5597 5587 5578 5570 5561 5552 5543 5535 5527 5518 5510 5502 5494 5486 5478 5470 5462 5454 5446 5437 5429 5420
5758 5754 5752 5749 5744 5740 5734 5728 5720 5712 5703 5694 5685 5676 5668 5660 5651 5642 5633 5623 5614 5604 5595 5585 5577 5568 5560 5551 5543 5535 5526 5518 5510 5502 5495 5487 5480 5472 5464 5457 5449 5440 5432 5424
5747 5744 5742 5739 5735 5730 5725 5719 5712 5705 5696 5688 5679 5670 5662 5654 5646 5638 5629 5620 5611 5601 5592 5583 5575 5566 5558 5550 5542 5534 5526 5518 5510 5503 5495 5488 5480 5473 5465 5458 5450 5442 5434 5426
5735 5732 5730 5728 5724 5720 5716 5710 5704 5697 5689 5681 5672 5664 5656 5649 5641 5633 5625 5616 5607 5598 5589 5580 5572 5564 5556 5548 5540 5533 5525 5518 5510 5503 5495 5487 5480 5473 5465 5458 5450 5443 5435 5427
5722 5720 5719 5717 5714 5710 5705 5700 5695 5688 5681 5673 5665 5657 5650 5643 5635 5628 5620 5611 5603 5594 5585 5577 5569 5561 5553 5546 5538 5531 5524 5516 5509 5502 5494 5487 5479 5472 5465 5457 5450 5443 5436 5428
5708 5707 5706 5705 5702 5699 5695 5690 5685 5679 5672 5665 5658 5650 5643 5636 5629 5622 5614 5606 5598 5590 5582 5574 5566 5558 5551 5543 5536 5529 5522 5515 5508 5501 5493 5486 5478 5471 5464 5456 5449 5442 5435 5428
5695 5694 5694 5692 5690 5687 5684 5680 5675 5669 5663 5657 5650 5643 5636 5629 5623 5616 5608 5601 5593 5585 5577 5570 5562 5555 5548 5540 5533 5526 5519 5513 5506 5499 5492 5484 5477 5470 5462 5455 5448 5441 5434 5428
5681 5681 5681 5679 5678 5675 5672 5669 5665 5659 5654 5647 5641 5634 5628 5622 5615 5609 5602 5595 5588 5580 5573 5565 5558 5551 5544 5537 5530 5523 5517 5510 5503 5497 5490 5483 5476 5468 5461 5454 5447 5440 5433 5427
5666 5667 5666 5666 5664 5663 5660 5657 5654 5649 5644 5638 5632 5626 5620 5614 5608 5602 5595 5589 5582 5575 5568 5561 5554 5547 5540 5534 5527 5520 5514 5507 5501 5494 5488 5481 5474 5467 5460 5453 5446 5439 5433 5426